Theta_e
308 307 307 307 307 307 307 307 307 307 307 307 307 307 308 308 308 308 309 309 309 309 309 309 310 310 310 310 310 311 311 312 312 314 316 317 316 316 317 316 315 314 313 313 313 314 314 315 314 314 316 318 317 319 318 319 331 338 333 324 324 327 327 330 325 316 317 317 317 318 317 315 316 318 316 315 316 318 318 317 316 315 315 315 315 314 314 316
307 308 308 307 307 307 307 308 308 308 308 308 308 307 308 309 309 309 309 309 310 309 310 310 310 310 310 311 311 311 312 313 313 316 318 319 318 317 317 315 314 314 313 313 314 314 316 317 313 315 320 319 318 318 320 320 323 333 331 323 329 335 330 328 322 316 315 315 316 318 318 316 315 316 315 315 317 317 316 316 314 314 316 315 314 313 313 316
307 307 307 308 308 308 308 308 308 308 309 308 309 309 309 309 309 309 309 309 310 310 310 310 310 310 311 311 311 311 312 313 315 317 317 317 317 316 316 314 314 314 313 313 314 314 316 317 312 316 320 317 319 320 323 322 320 330 328 323 336 339 328 324 321 318 316 314 316 319 318 317 316 316 315 315 317 317 316 315 314 315 317 316 316 312 313 317
307 307 308 309 310 310 310 309 309 310 309 309 309 310 310 310 309 309 310 310 310 311 311 311 311 311 311 311 311 312 313 314 316 317 315 315 314 315 315 314 314 314 313 313 315 315 315 315 312 316 318 317 322 321 324 325 320 324 323 326 337 330 322 324 323 320 317 315 316 317 317 317 317 316 315 315 316 317 315 315 314 315 315 316 316 311 312 317
307 308 309 310 310 310 310 310 310 310 310 310 310 311 311 311 311 311 311 312 312 313 313 313 313 314 314 314 313 313 316 316 316 315 314 314 314 314 315 314 314 313 313 314 316 315 314 313 312 316 317 317 320 318 323 326 321 321 322 325 330 322 319 322 322 320 316 316 317 317 317 316 316 315 316 315 316 316 315 315 314 315 315 314 314 311 311 316
307 308 310 311 310 310 311 310 310 311 310 311 311 311 311 312 313 313 313 314 314 314 314 314 315 315 315 316 315 314 314 315 315 316 314 314 314 314 315 314 314 313 313 314 315 314 315 314 313 317 317 317 318 316 319 320 317 321 322 322 324 320 318 319 320 318 317 316 316 317 316 314 315 316 317 317 316 316 315 315 314 313 312 311 311 310 312 318
308 308 311 311 310 311 311 311 311 311 312 312 313 313 313 313 313 314 314 314 313 313 312 312 313 313 314 316 317 317 316 314 315 317 316 314 315 315 315 315 314 313 313 314 315 315 316 315 315 318 318 317 317 317 316 315 316 320 322 322 321 319 318 319 317 317 317 315 315 315 314 313 314 315 316 317 315 315 315 314 313 311 309 309 310 312 313 314
309 309 311 311 311 312 311 312 312 312 313 313 313 312 312 312 312 314 314 313 311 311 310 310 310 309 312 315 319 321 320 317 316 318 317 317 317 316 315 315 313 313 313 314 314 315 316 316 316 316 316 317 316 317 316 314 317 320 320 320 318 317 319 318 316 317 317 314 314 313 314 314 313 313 314 314 313 315 314 313 314 312 311 311 311 313 313 312
311 310 311 312 313 312 312 313 312 313 312 312 313 312 312 312 313 314 313 313 312 312 312 311 310 308 310 314 318 322 322 319 318 318 318 318 319 317 316 314 313 314 313 315 314 313 315 317 317 315 316 318 315 316 315 315 318 318 316 316 315 315 316 316 316 316 315 314 312 312 314 313 312 313 314 315 315 314 313 314 314 313 314 313 312 313 312 313
311 311 312 313 314 313 313 313 313 313 312 313 313 314 314 315 316 316 316 317 317 316 315 313 311 309 309 313 318 321 320 320 320 320 319 318 318 316 314 314 314 313 313 314 314 313 314 316 315 314 316 318 314 314 314 314 316 315 314 314 315 315 315 315 315 315 313 313 312 312 314 313 313 315 314 317 318 315 314 315 314 312 313 313 314 313 309 308
312 313 313 313 314 314 313 313 314 313 312 313 315 316 318 318 319 319 320 319 317 316 315 313 311 309 311 316 320 319 318 319 319 320 319 316 315 314 313 314 314 313 314 314 313 314 314 315 313 312 315 315 313 315 314 314 314 313 313 315 316 315 315 315 314 314 312 313 315 314 314 314 313 314 316 316 316 313 313 315 315 313 313 314 316 312 307 307
313 314 314 314 314 314 315 315 314 313 314 317 318 319 319 320 320 320 320 317 316 315 314 313 310 310 313 315 319 317 316 318 317 318 318 315 314 314 314 315 315 315 314 313 314 315 315 315 313 314 316 314 314 315 314 313 313 313 313 314 317 316 315 315 314 313 312 313 316 314 315 317 315 315 317 315 314 313 313 314 315 314 313 314 314 309 308 308
315 315 316 316 316 317 317 315 314 316 318 320 320 320 320 321 321 320 318 316 316 315 314 313 309 310 313 314 315 313 314 317 317 317 316 316 316 316 316 316 316 315 314 314 314 314 314 315 314 315 315 315 317 314 312 313 313 314 314 313 315 316 318 317 313 312 312 313 315 314 316 323 324 318 317 314 312 313 314 315 314 313 314 312 310 309 310 308
317 318 318 318 319 319 317 316 317 319 320 320 320 320 321 320 320 319 317 316 316 315 313 312 310 310 313 315 314 312 313 315 317 317 317 317 317 317 317 316 316 315 315 315 314 314 314 314 314 314 314 315 316 313 314 318 317 314 312 315 316 315 322 323 314 314 316 314 313 313 316 322 324 320 318 314 311 312 314 315 313 312 312 310 308 309 309 306
318 320 320 320 320 319 318 318 319 320 320 320 320 320 321 320 319 316 315 315 314 313 312 310 311 312 314 316 314 313 314 315 317 317 317 318 317 316 316 316 316 315 315 314 314 314 313 314 315 316 316 314 314 317 320 321 324 320 313 323 325 316 322 324 315 316 317 314 311 312 317 319 318 319 320 316 312 312 313 313 313 312 311 309 309 309 307 306
319 320 320 320 320 319 319 320 320 320 320 320 320 320 321 319 317 315 314 313 312 312 312 312 313 314 315 316 314 313 314 315 316 315 316 317 316 316 315 315 315 314 314 313 313 314 313 315 315 315 317 313 316 325 326 323 328 327 316 323 328 319 318 320 318 319 315 314 312 312 317 318 318 320 320 317 313 313 313 312 312 311 310 310 309 307 306 305
320 320 319 319 320 320 320 320 321 320 320 321 320 320 321 319 315 313 312 313 315 315 315 315 315 314 315 314 314 315 315 314 315 315 316 316 315 316 314 314 313 312 313 312 312 313 312 313 313 314 316 315 317 324 326 322 326 329 320 319 324 320 316 318 321 320 315 315 314 313 315 315 317 318 318 316 313 312 312 312 312 311 309 309 307 306 305 304
320 319 319 320 320 321 320 321 321 320 321 321 320 321 321 317 314 313 313 314 315 315 315 315 314 317 318 315 314 316 315 314 315 316 316 316 316 315 314 312 310 311 312 312 313 313 313 316 317 318 317 314 316 318 321 323 323 326 323 320 322 321 317 318 320 319 317 317 316 317 317 316 316 316 317 316 312 312 314 312 312 311 308 308 306 305 304 302
320 319 320 321 321 321 321 321 321 321 321 321 321 322 319 316 315 314 315 316 317 320 320 317 317 322 322 317 315 315 315 315 315 316 315 315 315 314 313 311 312 313 314 315 314 313 316 319 319 319 317 315 315 315 317 321 320 321 321 319 320 320 319 317 317 318 317 315 317 318 317 317 318 318 318 316 313 313 315 313 311 309 308 307 305 304 303 302
320 320 321 321 322 322 322 322 322 321 321 321 322 322 321 324 324 321 320 320 321 322 322 319 318 320 320 319 317 315 315 315 314 315 314 314 314 313 313 311 314 315 316 322 320 314 315 319 319 319 320 318 316 314 314 315 315 315 316 317 318 318 317 315 316 319 316 314 320 320 317 319 320 319 318 315 314 315 315 314 310 308 307 306 305 304 303 302
320 321 321 321 322 322 323 323 322 321 321 321 321 321 325 329 328 326 326 326 321 317 320 321 316 316 318 318 316 315 316 316 313 313 312 313 313 314 314 313 315 316 318 323 320 312 313 317 320 320 320 318 315 314 312 312 313 313 315 316 317 318 316 316 316 318 314 315 323 321 317 320 321 318 316 314 313 313 314 313 309 307 307 305 305 304 303 302
320 321 321 322 323 323 323 323 322 321 321 320 319 318 319 320 320 319 321 327 325 316 317 320 316 317 318 316 317 317 319 321 318 314 312 311 312 315 316 315 317 320 318 318 316 314 315 318 320 319 317 315 314 313 312 314 314 314 316 317 319 319 318 320 320 320 317 316 324 324 318 320 321 318 314 311 311 309 309 310 308 307 306 305 304 303 302 302
319 320 321 322 322 323 323 322 322 322 320 320 318 317 316 315 316 314 316 325 326 319 318 320 319 320 320 318 317 317 319 322 321 318 313 311 314 316 316 315 317 320 317 316 318 318 319 321 320 316 313 313 315 315 314 315 315 317 319 318 319 318 318 323 323 323 321 316 321 321 317 321 322 317 313 309 309 308 306 307 306 306 305 304 304 302 302 301
319 320 321 321 322 324 323 322 323 321 320 320 318 317 316 314 313 313 316 321 322 321 319 318 318 319 321 317 313 317 320 320 321 319 313 312 315 315 316 316 316 318 317 316 318 318 320 321 317 313 313 314 316 316 316 316 317 321 321 319 319 319 320 323 322 323 323 320 320 317 320 329 326 318 314 310 309 307 306 305 305 305 304 303 302 301 301 300
319 320 321 321 322 323 322 322 323 321 320 320 319 319 317 315 312 311 317 322 323 325 319 315 317 318 316 313 313 316 319 319 318 315 311 312 315 315 316 315 315 318 317 315 315 316 318 317 315 315 316 315 316 317 318 318 319 322 324 321 319 320 322 324 322 322 325 325 320 316 324 335 332 323 316 310 309 308 306 305 304 304 303 302 302 301 300 300
320 321 321 321 322 323 322 323 323 321 321 319 319 320 317 316 313 311 320 327 327 327 322 317 318 316 312 312 314 316 320 320 313 310 311 311 312 314 316 317 317 318 318 316 316 318 318 316 315 318 320 319 318 318 320 321 319 321 325 324 323 322 322 324 321 320 325 326 319 317 322 329 330 327 318 313 311 309 306 305 304 303 302 302 301 301 300 299
319 321 321 321 321 323 324 324 322 322 324 321 320 320 318 317 314 312 320 329 330 327 322 317 315 315 312 310 311 316 323 321 311 309 311 310 311 311 315 319 317 317 317 318 321 323 320 317 317 317 320 323 320 320 322 322 322 325 325 325 327 324 321 323 321 320 324 322 321 322 318 319 323 323 318 316 315 310 306 305 303 302 302 301 301 300 300 299
320 321 321 321 321 323 324 323 323 323 324 322 320 320 319 318 315 315 324 334 333 325 319 315 312 312 311 309 310 315 315 313 314 312 308 309 311 311 315 319 320 319 316 317 325 327 320 317 320 320 319 321 321 322 323 321 322 327 323 322 324 321 321 325 323 322 320 316 323 327 317 316 323 324 317 314 316 312 308 306 303 302 302 300 300 299 299 298
321 322 322 322 322 323 323 323 323 323 323 321 320 321 319 316 314 318 328 334 329 320 316 312 310 311 312 311 312 313 309 309 314 312 308 310 310 311 315 317 318 317 314 316 323 325 320 316 320 323 321 322 324 324 323 321 321 322 319 321 325 323 324 325 323 323 319 316 324 327 319 318 325 329 321 314 317 316 308 305 303 302 302 300 300 299 299 298
322 323 323 323 322 322 323 323 323 323 322 321 322 321 317 317 317 322 329 329 324 318 314 312 312 312 313 313 313 312 309 310 312 311 311 312 311 312 312 311 314 318 318 319 321 320 317 313 315 320 320 324 325 320 318 320 318 316 320 324 327 328 327 325 325 323 319 322 327 325 321 318 322 331 326 316 317 315 308 304 303 302 301 300 299 299 298 298
322 322 322 322 321 321 322 323 323 323 322 321 322 320 319 321 322 326 328 324 321 321 315 313 313 311 313 318 318 313 311 311 312 313 313 312 313 314 312 311 315 321 323 321 320 320 316 313 316 317 317 321 321 316 316 320 319 318 324 325 325 328 328 327 327 323 321 327 329 323 319 316 320 328 323 314 312 310 307 304 302 301 301 300 300 299 298 297
319 320 320 320 321 322 322 322 322 322 322 322 321 320 322 324 323 326 327 323 324 324 319 319 317 313 315 318 319 316 313 313 312 314 317 316 316 316 316 320 319 321 326 324 322 323 321 319 318 316 315 317 320 319 318 321 322 322 323 324 324 325 324 325 326 323 324 326 321 319 318 317 321 321 314 310 308 307 306 303 301 301 301 300 300 299 298 297
317 319 319 319 320 321 321 320 320 321 322 321 321 321 322 324 323 325 327 326 325 322 320 321 318 317 318 317 319 318 314 315 312 313 316 316 316 317 318 321 319 317 322 323 322 323 326 325 319 314 315 317 320 320 319 322 322 318 320 324 325 324 323 326 326 320 320 323 318 316 317 319 322 316 308 306 304 303 303 302 301 301 300 300 300 299 298 297
317 318 319 319 320 320 320 319 320 321 320 320 323 323 322 323 322 322 325 325 324 322 320 319 318 317 318 318 322 320 316 317 314 312 315 313 315 320 320 317 315 316 320 320 320 324 327 328 323 318 318 318 316 317 325 330 322 316 320 322 322 327 327 326 326 321 321 326 320 314 316 325 325 312 304 303 302 301 302 301 301 301 300 301 300 299 299 297
315 316 317 317 318 318 318 319 320 320 319 321 325 324 321 322 322 321 325 324 322 322 319 318 320 319 320 323 324 320 317 319 316 313 316 316 318 324 326 322 317 318 321 321 322 323 322 326 326 318 314 315 314 316 323 328 321 315 318 318 319 326 326 322 325 324 322 325 322 318 321 321 314 306 302 303 302 300 301 301 301 301 300 300 300 300 299 298
312 312 312 313 314 315 315 317 319 319 320 322 324 322 320 321 323 323 324 321 319 321 319 320 323 321 324 327 325 321 317 318 319 315 316 318 320 322 327 327 320 315 318 321 324 322 319 325 324 315 313 314 313 315 318 321 322 316 315 321 322 319 320 322 324 320 318 321 321 321 321 313 309 308 304 303 303 301 301 301 301 301 301 301 302 301 300 299
309 308 307 308 310 312 312 314 317 318 321 322 321 320 318 319 321 323 323 319 318 320 320 321 322 323 325 326 325 324 319 319 319 318 320 321 319 320 323 323 317 314 316 318 322 322 320 325 322 315 315 314 309 313 316 316 319 319 319 323 320 314 317 324 325 322 320 322 321 321 320 316 316 314 305 303 305 303 302 302 301 302 302 303 303 302 301 299
306 305 306 307 308 310 309 311 315 318 321 321 318 319 319 318 318 318 319 319 318 320 321 322 322 322 325 325 326 325 321 321 321 320 325 323 319 321 323 320 315 315 317 315 317 321 319 322 322 314 315 316 313 315 317 313 312 317 320 319 317 319 323 322 321 323 322 320 321 323 321 318 319 316 308 306 306 303 303 303 303 303 303 304 304 303 302 300
303 307 311 308 306 307 307 309 315 318 321 320 318 318 318 317 316 316 316 316 317 319 321 323 321 320 322 324 326 323 319 322 323 320 322 321 319 320 320 319 316 317 319 317 317 321 319 319 322 316 313 316 316 317 321 318 312 313 315 315 316 320 323 321 319 322 323 319 320 322 319 320 322 318 313 308 304 303 303 303 304 304 303 304 305 304 302 301
303 310 315 308 304 306 306 310 316 319 319 317 316 317 315 315 316 316 316 315 316 318 319 321 321 320 320 321 323 322 319 324 325 321 321 321 320 319 318 321 319 317 320 320 319 322 319 317 322 321 315 315 318 319 323 323 317 315 316 317 317 316 316 318 317 319 322 321 320 319 318 322 322 315 310 307 303 302 303 304 305 305 305 305 305 303 302 302
303 309 311 306 303 306 309 313 316 318 318 315 314 314 313 313 315 316 317 316 317 318 317 319 320 320 319 319 322 321 320 324 325 322 321 321 320 319 317 319 320 317 318 321 321 321 319 319 324 326 320 320 324 320 319 322 323 323 322 320 320 319 318 318 317 318 319 319 320 319 319 321 317 310 307 306 303 302 303 306 308 307 307 307 306 303 302 302
303 306 308 306 306 309 311 313 313 315 316 314 313 313 312 312 313 315 317 317 317 317 316 317 320 320 319 319 322 322 320 324 324 322 321 321 322 320 315 314 317 317 320 321 319 317 318 320 324 325 322 321 320 315 313 316 319 320 320 318 319 320 319 319 318 318 318 317 318 318 319 317 312 308 307 304 303 304 304 307 311 310 307 306 305 303 301 301
305 307 308 307 309 311 310 310 311 313 314 313 312 313 313 313 314 315 316 316 317 317 316 318 319 318 319 318 319 321 320 322 323 323 323 323 320 316 313 315 316 317 320 319 317 316 318 320 322 323 321 319 316 313 312 313 314 315 317 316 317 318 319 319 317 317 317 317 317 317 318 315 313 312 309 304 304 305 304 307 312 312 306 303 303 301 300 299
306 308 308 308 311 312 309 308 310 310 311 311 312 313 313 314 315 315 315 315 318 318 317 319 318 317 318 317 317 319 320 319 320 320 321 322 318 311 311 315 315 315 317 317 317 318 318 318 320 320 319 318 315 313 313 314 315 316 316 315 315 316 316 314 313 314 315 315 316 316 316 315 314 312 309 307 307 307 306 306 307 308 305 302 300 299 298 298
305 306 307 308 309 311 309 309 309 309 309 309 311 312 312 313 314 315 316 316 318 319 319 318 318 317 318 317 317 318 318 318 318 317 317 318 315 311 311 313 314 314 314 314 315 316 316 317 318 318 317 316 315 313 314 316 314 313 313 313 312 313 314 312 312 314 313 314 314 314 315 314 311 309 308 309 309 308 309 308 305 304 304 302 300 299 298 298
306 306 307 308 309 310 310 309 308 310 310 309 309 310 310 311 312 313 316 316 316 318 317 317 317 317 317 317 317 317 317 316 316 317 317 317 315 311 309 310 312 312 312 311 313 316 316 315 316 317 315 314 314 313 312 313 314 313 313 312 311 311 311 310 311 312 311 311 311 310 312 312 310 309 309 309 310 309 308 307 305 305 305 301 299 298 298 298
304 306 308 309 310 310 311 310 309 310 310 310 310 310 310 310 310 311 313 315 316 316 315 315 316 315 316 317 317 317 317 316 315 316 317 316 314 310 307 308 309 310 309 309 311 314 314 313 312 314 314 312 311 311 310 310 312 313 312 312 311 310 308 309 309 309 309 310 310 309 309 309 309 308 307 307 307 307 306 305 304 305 303 299 297 298 299 298
302 305 306 306 309 311 311 311 309 309 309 309 310 311 312 311 309 310 312 313 315 314 314 314 315 316 317 317 317 316 316 316 315 315 315 315 313 311 309 308 308 308 309 309 309 312 314 314 311 311 312 311 308 308 309 308 309 310 310 310 311 309 307 308 308 308 308 309 308 307 307 307 307 306 304 303 304 304 305 303 301 301 299 298 298 298 299 298
300 301 302 303 306 308 309 310 310 309 309 309 310 311 312 312 311 310 311 314 314 313 313 314 314 315 316 317 316 315 315 316 314 314 314 314 313 312 311 311 308 306 308 309 308 309 312 312 308 307 310 309 305 304 306 305 306 307 307 307 307 305 304 305 305 305 305 305 305 305 304 304 303 302 302 302 303 302 300 298 298 298 298 298 298 298 297 296
299 299 301 303 304 304 306 308 309 309 309 308 309 309 310 312 312 311 311 313 314 313 313 313 313 315 315 315 316 314 314 315 314 313 313 312 311 310 311 312 309 305 307 308 305 306 309 309 305 306 310 308 303 304 306 305 305 305 304 303 302 301 302 302 302 301 302 302 302 302 302 302 300 301 301 300 299 297 295 294 295 295 296 296 295 295 295 295
297 297 299 302 303 303 305 307 307 309 309 308 308 309 309 310 311 311 310 310 312 314 313 313 313 313 311 311 313 313 312 313 313 312 311 310 310 309 310 311 308 306 306 305 304 306 308 306 303 305 309 307 302 303 304 304 304 303 302 300 299 299 299 299 299 300 300 300 300 300 301 300 299 300 299 296 296 295 294 294 293 293 295 295 294 294 295 296
295 295 296 300 304 304 304 305 307 307 308 308 307 307 308 309 309 310 310 308 308 308 309 311 312 310 310 310 310 310 309 309 308 306 304 305 306 306 307 308 307 307 306 304 304 305 306 306 305 305 307 305 301 301 302 303 303 302 300 299 299 298 298 297 298 299 299 299 300 300 299 299 299 300 299 296 295 295 294 293 293 294 295 295 295 295 296 296
Wind_Speed
1 1 1 1 1 1 1 2 1 1 1 1 1 2 2 2 3 3 3 4 5 6 6 7 7 8 9 11 12 13 15 15 16 14 9 7 4 5 4 3 3 2 3 5 7 7 4 3 2 2 2 2 2 1 2 2 2 4 3 3 1 3 3 5 6 4 2 4 6 6 3 3 5 5 3 4 3 4 6 8 4 4 7 9 12 10 7 5
2 1 1 1 1 1 1 2 2 2 2 2 2 2 3 3 3 4 4 5 5 6 6 7 8 8 9 10 12 13 15 16 16 12 6 2 5 8 4 2 1 1 4 7 8 8 6 2 2 4 4 2 2 2 1 1 2 3 3 2 3 5 5 5 5 4 2 4 6 6 4 3 4 3 2 4 7 6 7 11 5 4 10 11 15 13 8 7
4 3 1 1 1 2 2 2 2 3 3 3 3 4 4 4 5 5 5 6 6 7 7 8 8 8 9 9 10 12 14 14 9 5 1 5 10 9 5 3 1 1 4 5 7 7 6 3 5 5 4 1 2 2 2 1 1 2 3 1 5 7 5 5 6 6 5 5 5 7 4 3 5 3 0 3 8 8 7 11 6 6 10 9 11 9 6 8
5 3 1 1 2 2 2 3 3 3 4 4 4 5 5 6 6 6 6 6 7 7 8 8 8 8 8 9 9 9 11 8 3 2 4 8 10 8 6 3 1 3 6 6 6 5 3 2 4 4 3 0 3 2 1 3 1 1 4 4 7 4 3 7 8 7 6 4 4 7 5 6 6 2 1 2 6 9 9 10 7 9 12 10 10 8 7 9
5 3 1 1 2 2 2 3 3 3 4 4 5 5 6 6 7 7 7 7 8 7 8 8 8 8 8 8 7 7 7 5 1 3 5 7 7 6 5 3 2 5 8 8 6 5 3 2 4 4 3 1 2 3 3 4 3 2 3 6 6 4 3 8 6 4 4 3 6 6 5 6 3 1 3 3 4 8 10 10 9 9 10 10 11 9 6 8
5 3 2 2 2 2 3 3 3 4 4 5 5 6 6 7 7 8 8 8 8 8 8 9 9 8 7 6 4 3 3 1 3 3 6 6 4 3 3 2 2 5 9 9 5 4 3 3 4 2 2 0 2 3 4 2 3 3 4 4 6 5 5 6 4 4 4 4 7 5 4 3 3 6 4 6 10 11 12 13 10 9 10 12 11 9 6 7
5 3 3 3 3 3 3 3 4 4 5 5 6 6 7 7 8 8 9 8 8 8 8 9 9 7 6 4 2 1 3 4 8 6 7 5 4 4 3 3 3 5 10 10 5 4 4 4 2 4 4 1 3 5 4 1 3 5 5 5 6 6 7 7 5 6 5 6 9 4 4 6 5 7 3 7 12 12 14 12 11 12 12 11 9 8 9 9
5 4 3 3 3 3 3 4 4 5 6 6 6 7 7 8 8 9 9 9 9 9 8 8 8 6 3 1 1 3 1 8 11 8 10 10 9 7 5 5 5 7 11 11 7 5 4 4 4 3 3 2 3 3 3 2 0 5 6 5 4 3 6 7 6 8 9 8 7 4 9 11 8 3 4 13 16 14 12 8 9 11 10 7 6 8 8 9
5 5 4 3 3 3 4 4 5 5 6 6 6 6 7 7 8 9 9 9 9 8 7 7 6 4 3 3 4 2 3 6 8 7 8 9 9 8 7 6 7 9 9 9 6 6 4 4 4 4 4 4 4 3 2 0 2 5 6 4 3 5 6 6 7 9 8 6 3 4 13 14 5 2 5 13 16 14 8 6 7 7 10 9 6 7 6 7
6 5 4 3 3 3 4 4 5 5 5 5 5 5 6 7 7 8 8 9 8 8 7 5 5 3 5 4 6 1 5 3 5 5 5 6 8 8 8 7 7 9 8 6 6 6 4 5 4 4 5 2 3 3 1 3 3 4 3 4 4 6 7 4 8 11 7 6 5 5 14 13 3 0 4 10 12 8 6 7 8 5 8 9 7 7 6 7
5 5 4 3 3 4 4 4 4 4 4 4 5 5 6 6 7 8 8 8 8 7 6 4 4 4 6 5 5 4 4 3 5 3 3 6 6 6 7 6 5 8 8 4 5 6 4 6 4 4 2 1 2 2 2 3 2 1 2 6 7 6 8 7 9 10 4 5 6 8 9 9 2 2 7 13 9 4 6 9 10 7 6 7 7 6 8 8
4 4 4 3 3 3 3 3 3 3 4 4 5 5 6 7 7 8 7 7 7 6 5 4 4 6 6 3 4 8 6 5 4 2 4 5 4 4 4 4 4 6 8 3 2 3 3 5 6 4 3 2 1 2 3 2 1 2 4 5 9 7 8 11 8 5 1 3 4 7 4 8 2 6 12 13 7 6 7 9 10 6 4 5 5 7 8 9
4 4 4 3 3 3 2 2 2 2 3 3 4 5 6 6 7 7 6 6 6 5 4 3 6 8 5 0 5 9 10 8 5 4 4 4 4 3 4 5 6 5 5 3 2 3 2 3 5 4 2 3 1 2 0 2 2 4 3 1 6 6 6 9 3 1 1 3 5 6 2 7 6 10 12 10 7 7 8 10 8 5 5 4 5 8 7 10
5 5 5 4 3 3 2 2 1 2 3 4 5 6 6 7 7 6 5 5 5 3 3 4 7 8 4 3 4 4 8 8 8 7 6 6 5 4 6 6 6 5 3 2 3 4 4 1 3 2 0 2 1 2 3 5 3 3 2 1 3 2 5 8 3 0 4 3 5 6 2 6 10 11 11 9 5 4 7 9 7 6 6 5 7 7 7 9
6 6 5 4 4 4 3 2 1 2 3 4 6 7 7 7 6 5 4 4 2 0 2 5 8 6 1 5 5 3 5 7 9 11 9 7 6 4 7 8 6 4 2 2 3 3 3 2 3 2 1 2 2 4 4 4 3 2 1 3 3 2 5 10 7 3 3 4 4 5 3 5 9 11 12 9 4 3 6 8 7 6 6 7 6 7 7 6
7 6 5 5 4 3 2 2 1 2 3 5 6 7 8 6 4 3 2 1 3 5 5 5 6 5 1 3 1 1 5 6 8 10 9 8 6 5 6 7 5 4 3 2 3 3 3 3 2 1 1 2 3 4 3 4 4 3 1 3 3 3 3 6 7 2 2 2 2 3 3 4 6 8 12 11 8 7 6 7 7 6 7 7 5 6 6 6
7 5 4 4 3 3 2 1 1 3 4 5 6 7 7 4 1 1 3 5 7 7 5 4 4 2 2 2 1 2 4 7 7 8 9 8 7 7 8 6 4 5 4 3 4 2 2 3 0 0 1 1 3 5 3 2 4 3 1 3 4 4 3 3 6 6 4 3 0 2 2 5 8 9 13 16 10 7 7 7 5 5 7 6 6 6 6 7
6 6 5 4 3 2 2 1 2 3 4 5 6 6 4 0 2 2 4 5 5 5 4 2 3 1 3 2 2 3 3 5 6 9 11 8 8 9 6 4 5 7 5 3 2 2 2 2 2 1 2 2 3 5 2 5 5 4 4 3 4 3 4 5 5 5 5 3 2 4 5 8 10 9 12 16 10 6 6 4 4 7 7 6 6 7 7 8
8 7 6 5 3 2 2 1 2 4 5 5 6 3 2 3 2 1 2 3 3 2 1 2 3 2 3 3 2 1 1 4 6 8 9 7 8 9 5 5 6 6 4 1 2 0 2 3 4 1 2 3 5 7 9 10 7 7 6 4 4 4 5 7 6 6 3 3 4 7 8 7 8 9 11 14 8 6 6 4 7 6 7 6 6 6 6 8
9 8 6 5 4 2 2 2 2 3 5 5 3 1 3 2 2 1 1 2 4 4 2 4 6 3 4 2 2 3 2 4 4 4 7 8 8 7 3 4 5 5 2 4 2 2 3 3 2 4 7 8 10 12 11 8 4 4 4 3 5 5 7 7 7 7 2 0 6 6 5 6 7 10 12 13 7 7 7 5 8 6 7 6 7 7 7 8
10 8 7 6 5 3 2 2 2 2 4 5 1 2 3 2 2 1 2 3 8 9 6 7 9 8 10 4 4 5 2 1 1 1 7 9 9 7 1 2 4 1 2 4 2 1 3 4 6 9 12 11 10 9 8 5 4 4 4 4 6 6 7 7 6 7 1 1 5 2 3 7 8 11 13 10 7 7 7 5 9 8 8 6 7 7 7 6
11 10 9 8 6 3 1 2 2 1 1 1 2 4 3 3 3 2 1 2 7 7 8 10 7 8 14 10 6 5 1 2 3 1 7 8 6 5 2 4 5 3 2 3 3 1 2 4 10 14 11 7 5 4 6 6 6 4 3 3 5 4 4 7 6 5 2 1 5 3 3 7 10 10 8 9 8 6 8 8 8 7 9 7 6 6 6 7
13 13 11 9 6 3 0 1 1 1 2 3 5 6 4 3 3 3 3 1 5 4 5 7 5 5 8 7 6 7 4 5 4 4 10 10 3 4 4 5 6 4 3 5 5 4 3 6 13 14 7 4 6 5 5 5 3 4 4 3 5 3 1 4 5 4 3 1 2 3 4 6 9 7 6 9 7 8 10 12 11 8 9 7 6 6 6 7
15 15 12 10 7 2 1 1 1 3 5 6 7 6 5 3 3 3 2 1 3 5 4 5 4 4 3 2 5 7 4 5 3 4 11 12 4 3 5 6 6 4 5 8 9 7 7 8 7 6 5 7 7 7 5 4 2 4 6 6 6 5 5 6 4 4 4 4 2 3 5 4 6 5 3 5 5 8 8 10 11 8 7 6 6 7 7 7
17 16 14 12 6 1 1 2 3 5 5 5 6 6 5 3 4 4 2 2 2 5 3 3 2 2 3 1 3 4 2 2 2 2 8 10 6 3 3 3 5 5 7 8 7 6 8 8 2 2 4 7 6 7 5 5 2 5 5 9 10 8 7 5 2 4 4 4 3 4 4 4 5 4 3 3 4 7 6 8 9 7 6 5 6 7 6 7
19 17 15 12 7 3 2 2 5 7 4 3 4 5 4 3 4 6 2 4 3 4 1 2 1 1 2 1 0 2 3 2 2 2 5 6 4 3 2 1 1 4 7 5 3 3 6 6 4 5 5 6 6 6 5 7 4 4 5 8 9 6 4 3 3 3 0 3 3 4 1 5 5 5 3 5 5 6 5 7 7 5 5 5 5 5 5 6
20 18 16 13 9 7 4 2 7 7 2 4 6 5 4 3 4 5 2 4 4 3 3 1 0 2 2 1 1 3 2 3 1 3 2 2 1 1 2 2 1 2 3 2 0 3 4 2 3 7 6 5 5 5 6 8 6 4 5 4 6 6 5 4 5 2 3 3 4 2 2 3 4 5 4 5 7 5 5 5 5 5 5 5 5 5 5 5
20 20 18 16 13 12 8 4 7 6 3 6 8 5 3 3 4 3 4 1 3 1 2 1 1 2 1 1 2 3 1 1 3 0 2 2 1 2 1 4 4 3 2 4 3 5 1 2 4 8 6 5 6 5 7 10 5 6 5 6 6 5 5 4 5 2 1 1 5 4 1 2 5 5 5 2 5 3 4 4 4 4 4 4 4 5 5 5
22 22 21 19 15 15 14 9 7 6 6 7 6 3 3 4 4 3 4 1 2 1 1 0 2 1 1 2 3 2 1 2 2 2 2 2 1 3 2 5 5 4 3 2 5 6 2 3 5 7 5 6 5 3 5 9 5 4 4 5 4 5 5 4 4 3 2 1 5 6 3 2 5 5 3 1 2 4 4 4 3 4 4 4 4 4 4 4
25 24 22 20 17 16 16 13 9 8 8 7 4 3 4 4 3 3 2 3 0 0 1 1 2 1 3 4 2 1 1 1 0 1 3 1 2 4 1 2 4 2 2 3 3 6 4 2 2 4 4 5 5 2 1 4 3 4 5 5 6 5 4 3 2 4 2 3 6 8 8 5 3 5 3 2 2 6 8 5 4 4 4 4 3 3 3 3
25 23 20 18 18 17 12 9 11 11 9 7 4 3 3 2 2 3 5 2 2 1 1 1 1 2 4 5 2 1 1 1 0 2 2 1 2 4 2 0 2 3 3 4 4 5 5 2 2 2 2 4 5 4 3 3 3 5 5 4 3 4 4 4 4 3 1 5 6 5 5 5 4 5 2 3 4 4 9 8 8 7 4 4 3 3 3 2
19 19 19 18 17 15 9 6 10 12 10 8 5 2 3 1 1 3 3 1 1 2 2 2 2 3 4 3 2 4 3 1 1 3 3 2 2 2 2 3 3 2 3 3 3 4 3 4 4 3 1 4 6 3 2 5 5 5 4 5 3 3 3 3 3 0 3 6 4 4 5 2 5 4 3 5 6 3 7 8 9 9 6 5 4 3 2 2
15 16 16 15 14 13 8 5 7 9 10 9 4 3 3 2 3 3 3 1 1 1 1 2 2 4 5 3 2 3 2 2 3 3 2 3 3 3 4 4 5 1 2 3 1 3 3 5 3 1 3 2 7 5 2 1 1 4 5 4 4 2 0 3 4 2 4 5 3 3 3 2 4 2 4 5 5 3 7 9 8 8 7 6 4 3 2 1
15 14 12 11 11 10 7 5 5 8 9 7 3 3 3 3 3 3 4 3 1 1 1 2 2 3 4 2 3 4 3 2 4 4 2 3 2 2 4 4 5 3 1 2 1 2 2 5 2 4 2 2 6 5 5 5 4 4 5 5 4 4 4 4 4 3 4 5 4 2 1 2 3 1 3 3 4 4 6 7 6 6 5 4 4 3 3 2
14 13 11 9 9 7 5 3 3 6 7 4 3 2 4 4 1 2 4 3 1 1 0 1 4 3 0 2 3 3 3 2 2 4 3 3 3 3 3 4 6 5 3 2 2 2 3 5 5 3 2 2 4 3 4 6 2 2 3 5 2 4 5 3 3 5 3 3 3 2 2 2 3 1 2 3 5 5 5 5 6 5 4 3 4 3 3 3
12 10 8 7 8 7 6 4 2 3 3 4 3 3 4 2 3 3 3 2 2 2 1 1 3 2 2 3 3 3 1 1 2 3 2 3 3 4 4 4 5 8 6 4 3 2 2 5 5 3 2 2 3 2 2 3 2 2 3 3 4 4 6 2 3 0 3 2 4 2 2 2 1 1 2 5 5 4 4 4 5 5 4 4 4 4 4 4
8 7 4 4 7 8 8 6 4 3 3 4 3 4 3 2 4 4 2 1 1 2 3 2 1 3 3 2 3 4 1 1 2 3 2 2 2 4 5 2 2 7 7 3 3 3 3 4 5 0 1 1 0 2 3 2 3 5 2 5 3 1 3 3 1 3 2 3 4 1 3 3 1 2 0 4 4 4 4 4 5 4 4 4 5 5 5 4
8 6 1 5 8 9 10 9 6 4 3 2 4 4 3 3 4 4 3 1 1 3 2 3 3 4 4 4 4 3 3 3 2 3 2 2 3 3 4 2 0 2 3 3 2 1 2 2 6 0 3 3 4 3 2 4 2 4 3 3 2 1 1 1 2 2 2 4 4 4 5 4 4 4 4 6 9 9 7 6 5 6 6 6 6 5 5 3
9 5 2 6 10 11 11 11 7 4 2 4 6 4 4 4 5 6 5 2 1 1 1 4 3 2 3 5 4 3 4 4 4 3 2 2 4 2 3 2 1 0 2 3 4 1 2 1 4 2 1 2 4 2 2 3 2 3 1 2 2 2 3 2 2 2 3 4 5 6 6 4 4 5 8 11 12 11 9 7 6 7 7 6 5 5 4 3
7 3 2 5 11 13 13 11 6 3 4 4 4 4 3 3 4 6 6 5 3 3 3 4 4 4 4 4 4 3 3 4 5 4 2 3 3 2 1 2 3 2 2 3 3 0 2 1 3 4 3 0 1 2 5 5 3 2 1 1 1 0 1 1 1 2 3 3 4 6 7 5 3 2 7 10 9 10 9 8 7 7 6 6 5 4 4 4
4 1 1 4 12 17 15 8 3 4 4 3 3 4 3 2 2 3 5 6 5 2 2 4 5 5 5 4 4 3 3 3 4 4 3 3 3 2 1 2 3 4 2 4 2 1 1 2 2 2 1 2 4 4 5 7 5 5 3 3 3 2 2 1 4 1 2 3 3 4 7 5 2 2 4 6 8 10 10 9 7 7 7 7 5 4 5 5
3 1 2 8 19 21 13 4 2 3 3 4 3 3 3 3 2 2 3 4 4 4 1 2 5 5 5 4 4 4 3 3 4 4 3 4 4 4 1 1 1 3 4 2 2 2 3 3 1 3 3 5 5 3 2 4 4 4 2 2 3 3 4 3 6 3 1 3 2 2 5 3 1 3 2 7 10 10 10 8 7 6 7 6 5 4 5 5
2 2 4 11 22 20 8 3 3 3 4 3 1 2 3 2 3 3 4 3 3 4 3 2 3 4 4 3 3 4 4 3 4 5 3 3 3 2 1 2 1 2 3 2 2 0 2 3 1 3 3 3 4 4 3 3 3 2 2 1 3 3 3 4 4 2 1 3 2 2 4 2 1 3 2 6 8 8 7 7 6 5 5 5 5 5 5 5
2 2 2 9 20 16 5 4 6 6 7 3 0 3 2 1 3 4 5 5 4 3 4 3 3 4 4 3 3 4 5 4 4 3 3 3 2 0 3 4 0 2 1 2 3 1 1 1 2 0 3 5 4 4 5 4 1 2 2 2 2 3 4 3 0 1 1 4 5 4 5 3 2 1 4 3 6 6 5 5 5 4 4 5 5 5 5 5
3 2 2 5 13 10 3 3 3 4 7 6 4 5 3 2 4 5 6 5 4 4 4 3 3 3 3 2 2 3 4 4 3 2 1 1 1 2 4 5 2 2 1 1 1 2 2 2 3 3 5 8 5 3 2 2 1 1 1 2 2 3 5 3 1 1 2 3 4 5 5 3 1 1 1 1 5 6 6 5 3 4 4 5 6 6 5 5
3 1 1 2 5 5 2 1 1 1 4 5 5 6 7 6 4 3 6 5 4 4 3 2 1 2 3 3 3 4 4 3 2 1 2 2 2 2 3 4 3 2 1 2 3 3 3 2 3 6 8 8 5 5 4 2 2 2 3 3 4 4 4 4 3 3 3 1 3 6 6 3 5 5 5 4 5 6 6 5 5 5 5 6 6 6 6 5
2 2 4 4 2 4 4 3 4 3 2 4 4 3 7 9 5 2 5 5 4 5 3 1 3 4 4 4 4 4 4 3 3 2 2 3 1 2 3 3 4 3 2 2 2 3 4 2 4 5 7 6 3 4 3 2 3 5 5 7 9 7 4 6 4 4 4 2 7 9 6 5 9 11 7 6 5 5 6 7 7 7 6 6 6 6 6 6
1 1 3 2 1 5 7 6 9 9 5 4 3 1 3 7 7 5 4 3 3 5 5 3 4 7 7 6 5 4 3 4 4 3 2 2 2 0 2 2 2 3 3 2 2 4 5 3 3 3 4 3 3 3 3 3 3 5 6 9 12 9 5 6 6 7 7 6 10 7 3 6 9 10 6 5 7 7 8 7 6 4 5 6 6 6 6 6
1 0 2 1 1 4 6 5 8 12 10 6 4 3 4 6 7 6 2 2 2 5 6 6 6 7 8 8 7 5 5 5 4 3 3 2 2 3 1 1 2 2 3 2 1 2 3 1 0 2 2 3 0 1 3 3 3 4 7 11 12 8 5 7 9 10 8 8 10 8 6 9 11 9 7 6 5 6 5 3 3 5 6 6 7 7 6 6
2 1 1 1 1 1 2 4 7 9 9 8 7 6 4 6 7 4 1 4 4 3 5 8 8 6 7 8 9 8 7 8 6 5 5 5 3 3 2 3 2 2 2 2 0 1 1 1 1 3 1 5 4 2 3 3 3 5 10 12 10 6 7 9 10 8 6 8 10 8 8 12 11 6 4 3 1 3 4 5 5 6 6 7 7 6 6 6
1 1 1 3 2 2 2 3 6 6 6 8 9 7 6 8 8 3 1 3 4 3 4 7 7 4 3 6 9 9 7 7 7 7 6 6 4 3 2 3 4 4 2 2 1 0 1 1 1 4 2 5 4 1 2 3 3 7 14 15 12 9 9 9 8 7 8 9 8 6 6 10 10 5 1 1 3 6 6 6 6 5 5 6 6 6 6 6
2 2 2 3 2 2 3 3 5 6 5 6 9 9 7 7 5 5 3 2 2 1 2 5 7 4 2 5 8 8 5 6 6 4 4 3 3 3 2 2 5 5 5 3 1 1 3 3 1 3 2 4 3 3 1 5 5 8 11 11 12 12 10 8 8 9 9 7 5 6 8 8 7 4 3 4 5 6 6 6 6 5 5 5 5 6 5 5
Wind_Direction
285 239 223 197 195 204 211 235 244 262 274 277 293 309 314 325 328 339 339 339 340 339 343 341 344 343 340 341 338 336 331 328 324 315 298 291 262 193 224 270 303 282 185 172 167 157 122 106 124 97 74 52 14 355 356 355 74 54 78 110 217 201 207 195 193 199 176 268 276 300 299 194 279 301 307 325 316 308 308 286 264 281 273 249 258 279 302 263
284 285 296 293 256 261 261 267 286 296 299 308 317 317 324 327 328 337 334 335 335 332 335 336 340 338 339 341 337 337 331 326 322 313 306 283 152 155 181 187 295 258 188 182 184 170 133 142 183 103 60 42 328 4 8 321 90 95 118 143 225 203 216 198 199 222 199 257 272 288 269 209 245 266 334 308 293 327 321 290 285 283 278 275 272 276 283 229
283 286 302 301 289 299 288 291 309 316 320 325 325 326 328 324 325 331 328 329 329 329 330 330 333 332 336 336 337 340 330 328 325 315 35 124 133 135 146 140 62 205 199 194 192 183 151 158 165 129 62 24 287 33 52 322 174 166 128 178 241 217 234 245 238 242 230 236 272 288 285 267 256 233 305 293 298 312 292 280 286 280 276 278 275 273 263 216
283 288 293 291 294 300 304 311 313 318 321 319 320 324 325 322 323 321 322 324 323 324 322 322 326 326 329 331 338 338 334 344 324 230 131 130 128 129 147 152 132 182 197 190 181 189 184 167 156 132 86 9 306 32 137 244 216 185 143 191 234 203 232 261 252 247 242 234 268 289 316 307 271 209 236 290 315 303 280 264 242 254 273 278 276 271 242 214
272 277 276 268 261 275 291 295 299 306 309 311 314 317 319 318 319 318 318 318 317 318 316 315 316 319 323 328 338 338 353 21 279 216 156 143 129 135 148 152 170 190 193 184 177 186 201 155 109 81 76 188 314 43 237 233 148 171 214 216 231 178 217 262 251 250 278 306 300 296 301 289 290 296 238 218 253 268 274 270 244 237 258 271 278 278 241 210
262 255 251 249 240 255 270 276 288 295 299 306 309 311 313 312 315 315 314 313 313 312 309 307 307 311 314 321 330 340 44 44 251 200 178 169 152 161 159 186 203 202 194 190 191 181 178 103 88 111 94 170 204 191 243 246 147 217 268 250 245 220 229 269 278 295 323 317 289 280 282 299 341 304 247 215 236 244 261 273 273 263 261 270 278 279 258 231
257 246 244 244 236 243 262 272 281 288 297 302 305 310 310 311 314 313 315 314 309 306 303 301 300 301 305 310 302 17 88 245 256 219 212 221 231 237 231 234 227 210 194 190 190 166 136 92 128 163 112 14 218 212 242 289 172 205 260 273 260 238 232 261 288 294 290 265 262 267 311 303 284 291 292 253 254 251 260 273 283 282 280 279 278 272 268 263
250 239 234 239 240 241 254 267 277 286 293 301 306 310 310 314 314 313 316 311 305 305 301 295 294 295 292 206 164 15 12 253 265 249 242 251 250 243 234 233 226 211 193 193 192 160 134 132 183 166 116 236 195 202 255 332 226 200 231 262 275 267 246 264 277 274 273 263 266 298 294 277 254 259 288 270 269 266 267 283 287 293 304 294 274 271 275 279
244 234 228 235 244 246 258 269 279 287 296 305 309 310 312 315 313 312 310 307 307 304 301 294 286 277 226 159 103 23 270 253 277 269 252 252 242 232 228 228 219 208 192 200 194 155 159 179 204 186 176 215 178 206 259 21 266 214 208 237 274 288 278 284 282 271 276 268 268 303 283 280 272 225 258 262 260 267 291 313 294 310 314 306 300 288 293 299
241 230 223 231 249 257 265 275 286 294 303 308 313 317 315 315 313 314 312 310 311 305 305 292 275 242 196 152 98 169 264 280 297 283 255 237 225 222 225 222 213 207 196 197 192 171 177 198 199 155 161 173 172 220 175 155 223 219 222 278 276 287 288 277 274 276 288 278 241 239 269 281 311 180 266 263 252 272 333 316 301 319 302 303 315 318 352 357
236 228 224 229 247 258 267 281 295 302 305 310 318 321 319 321 320 318 317 314 312 310 305 285 256 211 178 145 129 205 262 285 286 281 227 217 210 215 216 213 213 214 210 190 189 200 215 218 173 117 156 196 173 262 262 199 218 240 343 320 302 318 307 273 268 276 294 286 220 182 256 290 343 174 241 257 260 320 339 304 303 318 303 300 313 358 34 30
223 222 225 233 245 257 274 287 300 306 311 322 322 322 321 319 319 317 316 312 312 310 298 277 226 189 153 119 198 227 252 261 264 231 186 179 165 189 199 213 231 229 227 209 167 183 208 215 158 137 225 178 128 305 258 229 355 337 30 336 303 345 322 280 273 267 202 259 192 144 289 307 247 217 241 256 281 334 326 297 296 315 329 310 335 44 52 34
215 220 225 236 242 247 258 272 295 305 311 320 313 315 314 312 317 315 314 313 313 310 287 254 205 181 149 239 236 235 249 251 249 223 197 176 163 198 220 227 228 228 238 221 153 103 98 198 165 176 203 134 223 267 156 16 6 314 9 342 300 352 315 280 276 348 304 239 173 137 290 290 260 249 255 270 295 318 309 290 296 335 358 353 38 65 53 35
220 225 227 230 216 205 214 233 260 288 300 306 307 308 308 312 315 311 316 318 315 305 264 208 187 171 150 254 256 258 250 239 238 237 236 227 203 213 222 211 202 204 224 189 147 93 70 84 128 126 119 136 244 309 1 359 1 312 322 316 319 324 279 291 291 342 322 274 157 146 219 262 274 280 278 282 285 282 284 289 312 344 356 30 65 73 57 41
224 226 219 202 183 181 191 195 230 291 300 301 306 307 309 315 313 314 327 324 328 294 170 161 169 156 92 279 265 268 241 227 233 238 243 232 203 206 212 198 187 183 180 142 125 95 76 69 86 102 280 286 48 33 352 344 356 6 302 304 325 205 265 305 295 199 236 283 115 136 222 266 274 282 287 292 297 280 283 301 329 351 23 62 73 66 60 42
226 217 195 179 175 177 184 191 261 301 303 307 311 311 313 316 310 320 348 57 99 115 125 142 163 144 5 271 207 195 218 215 228 229 224 213 201 197 182 176 177 165 154 135 127 119 91 69 58 133 236 300 84 80 34 359 333 344 183 250 272 227 264 315 304 270 190 253 90 145 226 278 277 283 294 296 298 305 305 314 335 15 56 72 64 54 57 38
224 197 178 177 183 185 190 217 302 312 311 311 314 317 318 312 276 95 95 110 114 109 101 131 159 136 290 220 155 260 212 204 216 206 196 195 197 186 159 139 134 132 114 94 113 109 59 59 65 235 38 40 119 99 55 323 290 310 271 228 246 235 238 292 295 316 28 78 241 283 240 251 273 290 296 291 295 320 316 317 352 66 80 73 65 58 51 42
213 188 186 192 197 199 213 263 323 322 316 316 320 323 328 355 168 140 114 122 114 88 65 92 130 134 273 211 202 232 181 194 199 183 184 186 187 181 154 121 118 111 84 51 60 69 25 17 63 14 3 51 128 117 161 231 227 248 258 245 267 264 245 258 264 290 346 13 284 293 283 264 275 285 284 283 298 333 313 333 65 98 93 77 70 63 54 51
209 192 193 201 210 224 246 292 334 326 316 317 320 326 75 101 132 164 147 144 131 114 161 213 164 162 248 248 239 243 161 178 172 174 183 176 176 172 129 97 104 98 92 55 315 53 105 47 60 130 243 204 189 182 200 218 210 224 241 228 251 271 259 254 255 261 285 326 281 268 275 274 279 283 278 281 306 342 327 38 89 103 92 82 73 66 58 57
213 202 205 216 229 248 266 297 330 330 320 316 314 114 117 88 40 311 259 184 207 217 206 206 202 224 278 276 172 194 183 165 161 176 182 172 163 155 105 64 67 58 119 160 220 256 129 129 171 204 218 213 209 209 213 225 221 230 249 248 249 255 266 261 261 268 231 180 268 254 268 279 279 282 279 287 329 355 341 59 99 98 87 80 73 70 61 58
216 215 221 226 233 247 273 300 321 329 324 316 281 155 162 158 128 268 278 273 252 245 252 237 217 239 259 243 159 170 151 151 249 139 171 172 151 148 180 63 87 26 231 159 149 340 127 169 218 223 221 220 219 214 215 236 244 236 238 258 268 251 259 263 256 276 316 158 266 301 331 291 284 282 288 314 7 358 340 80 105 94 84 73 68 65 60 58
219 224 227 229 228 224 247 305 318 332 333 318 136 134 151 145 125 145 141 302 277 250 240 249 236 243 256 260 240 212 183 244 274 251 173 160 141 173 192 96 140 210 201 131 102 89 159 209 236 234 223 227 250 210 188 218 222 218 215 227 257 251 278 284 274 297 357 202 271 343 342 288 282 283 318 10 44 27 17 68 83 80 81 66 60 60 57 57
222 227 228 230 222 199 180 327 313 80 114 145 128 117 128 138 128 121 111 100 291 273 225 240 234 232 258 268 229 198 202 219 240 244 182 155 142 189 153 136 179 190 156 170 169 163 189 231 238 236 211 200 254 237 191 215 217 208 214 216 249 255 280 277 284 309 332 305 284 333 314 284 278 280 28 37 58 62 47 62 63 60 72 63 59 60 55 59
224 227 228 229 217 180 40 317 221 129 113 121 119 115 127 147 155 133 96 85 285 281 236 216 208 202 227 239 181 174 194 205 203 229 182 160 146 160 163 174 175 176 194 198 189 187 220 235 234 227 181 178 230 256 228 216 245 239 222 220 243 244 216 230 280 319 337 356 17 14 331 300 276 269 79 52 49 64 51 60 61 51 61 62 61 59 52 58
225 227 227 225 214 173 334 279 198 165 145 119 114 120 128 147 171 153 99 34 294 292 272 201 186 193 194 135 167 176 168 200 211 218 179 167 153 140 190 181 152 200 219 204 195 217 246 241 182 147 179 171 202 247 230 179 219 278 234 214 224 230 226 228 333 8 12 337 335 37 355 296 301 298 152 129 52 58 46 51 61 50 46 51 54 53 47 51
226 226 226 225 213 196 251 247 188 171 174 181 143 128 139 156 176 174 115 43 296 275 259 182 180 183 187 54 321 141 106 268 266 97 146 169 170 141 182 208 127 212 211 197 188 221 250 237 189 187 186 161 189 244 231 163 160 275 247 207 206 203 204 187 99 61 107 254 289 58 103 268 311 314 205 146 94 73 64 54 59 53 45 47 49 47 42 41
228 227 224 225 218 207 215 200 185 175 172 197 165 139 156 162 168 183 104 26 292 231 137 226 301 130 169 278 331 125 143 265 48 69 99 143 226 84 152 226 195 207 193 129 173 235 227 221 193 197 189 177 202 248 222 162 142 238 241 158 146 151 168 158 117 133 219 251 316 3 161 264 291 279 254 140 115 86 78 74 66 64 54 48 46 43 46 43
230 232 229 228 227 220 219 202 188 191 181 168 157 148 160 163 167 147 83 42 279 161 116 276 108 106 122 17 42 110 199 300 98 306 348 73 62 63 121 225 178 199 217 125 208 258 206 161 201 185 183 205 218 235 195 159 156 239 213 134 126 140 149 131 108 127 271 360 308 292 159 265 262 267 297 116 135 144 135 124 102 92 81 62 51 41 41 43
231 234 235 233 231 226 223 219 202 190 176 159 152 151 141 153 160 89 82 185 268 65 89 66 119 85 30 52 26 60 18 9 121 247 345 63 47 73 164 218 160 194 266 137 214 263 277 219 196 155 166 211 212 230 185 165 188 223 156 106 65 70 88 84 102 111 33 6 250 239 183 211 267 281 303 77 165 191 161 131 116 109 100 87 71 54 41 36
233 234 235 227 216 210 209 214 211 186 174 170 158 139 133 139 121 97 182 211 37 112 165 112 159 139 84 92 358 345 74 350 112 360 23 60 5 34 131 202 101 145 294 354 264 263 293 286 177 151 184 193 159 111 146 171 169 126 100 61 28 26 46 47 70 89 58 275 246 225 193 179 275 286 225 197 231 179 152 140 144 127 106 103 89 74 63 44
226 227 222 209 200 196 189 201 209 198 192 189 175 152 137 99 86 165 206 196 61 190 161 126 183 128 117 130 172 190 133 276 309 74 79 89 26 30 45 39 58 64 354 329 296 300 320 307 250 245 195 137 111 87 27 10 64 95 87 65 36 340 9 25 358 46 123 255 264 228 180 155 218 267 276 311 319 140 145 155 156 148 141 132 110 92 78 61
206 201 193 189 188 187 178 177 195 198 202 192 173 142 115 79 213 199 223 354 44 209 174 172 192 168 158 146 178 191 166 206 204 131 141 139 146 180 180 177 167 33 336 259 272 334 308 244 258 299 253 139 116 97 9 1 33 82 97 85 72 326 347 353 306 342 213 254 264 167 139 152 226 248 343 348 347 51 126 141 148 148 151 148 135 123 99 65
180 176 174 175 172 171 164 151 170 180 179 169 149 73 92 163 219 202 218 235 199 228 149 133 147 149 143 134 218 199 162 201 194 168 160 129 150 232 250 203 169 169 270 215 250 335 302 295 302 285 284 184 141 150 203 267 115 136 144 128 123 140 212 269 264 272 265 270 268 165 147 276 260 287 353 348 346 36 111 125 140 143 145 152 152 149 135 92
162 163 164 163 159 161 153 132 140 152 155 151 111 72 126 192 229 215 225 238 235 257 29 86 104 112 123 163 225 182 157 228 175 153 152 115 132 254 265 233 184 158 169 164 202 195 220 301 257 178 261 221 169 178 166 146 152 174 155 136 147 158 177 232 231 220 257 279 292 259 192 221 220 293 335 360 19 51 97 112 120 122 134 146 147 156 166 161
153 155 153 153 160 165 160 151 126 137 149 130 81 118 180 197 210 209 227 243 260 251 24 77 93 98 253 277 264 198 180 233 154 133 152 157 176 202 213 216 186 153 132 160 231 189 181 257 259 247 292 162 180 208 129 113 127 205 127 114 172 186 172 221 220 181 190 287 291 240 214 210 164 107 358 53 60 59 77 95 108 119 137 142 152 179 189 185
150 146 144 161 174 171 171 179 152 142 139 98 102 197 210 192 179 193 217 216 194 151 146 5 76 119 267 300 279 248 197 213 154 140 188 200 204 212 213 222 187 175 172 170 207 200 180 262 284 324 353 111 166 208 114 120 191 169 119 175 218 181 133 129 269 215 94 268 267 199 214 285 85 67 33 73 77 74 87 109 129 152 166 167 186 198 198 193
138 123 127 187 194 181 177 179 175 160 112 100 172 216 209 205 201 198 225 243 199 121 137 219 200 180 219 253 246 235 186 196 178 158 206 234 229 212 209 242 193 190 197 175 209 214 169 264 290 127 149 317 161 133 51 41 134 127 168 217 210 140 84 95 241 329 18 254 274 291 240 246 213 240 26 104 130 158 173 167 168 191 198 197 206 210 211 197
119 96 101 231 210 192 184 185 179 143 101 147 215 228 209 216 218 203 211 228 42 59 108 204 217 190 191 204 238 226 173 185 192 171 187 224 235 192 166 192 170 217 229 144 172 251 125 255 295 105 169 304 358 78 32 348 63 127 197 222 117 149 258 83 169 236 255 254 281 289 266 242 202 200 186 184 185 183 185 185 192 206 207 209 214 220 224 196
110 85 327 228 204 196 186 182 170 132 142 205 214 225 212 214 229 223 227 236 145 105 193 225 223 214 193 186 204 204 178 187 183 176 175 195 227 189 126 153 149 284 305 139 164 252 85 196 285 317 202 308 18 77 186 270 339 61 28 326 59 149 180 176 178 173 209 255 274 278 280 270 233 197 182 193 189 175 176 183 201 211 208 212 214 214 215 185
106 91 312 214 192 183 169 162 158 163 202 209 198 203 201 213 235 231 228 224 206 200 215 218 216 226 227 208 205 195 185 190 175 177 199 191 216 243 129 135 145 146 11 69 125 76 59 158 251 299 323 53 153 204 189 189 183 113 114 258 271 98 142 221 242 131 159 224 250 266 271 263 255 196 187 196 179 165 173 180 200 217 215 220 221 205 194 179
99 101 268 184 168 160 147 142 174 192 204 222 206 206 213 222 240 243 231 217 214 231 201 196 212 219 220 227 227 197 181 192 180 183 216 210 214 232 180 116 154 163 81 57 88 144 126 160 214 272 320 192 226 240 185 171 163 149 171 196 184 158 126 240 260 188 151 211 205 242 268 266 270 262 212 184 158 163 180 183 196 217 216 220 226 202 185 183
109 176 190 155 158 156 144 147 204 180 212 228 206 201 214 216 218 228 228 212 219 239 249 218 217 212 213 218 213 190 176 199 205 195 212 218 205 201 180 70 165 145 120 129 193 189 133 111 173 249 228 212 241 269 170 162 143 134 173 184 160 152 135 183 239 224 186 249 215 227 266 267 283 288 201 154 157 168 181 184 193 212 214 214 215 197 186 185
137 155 142 154 166 165 154 183 196 193 233 236 183 214 217 201 210 214 205 197 206 214 226 240 215 212 227 213 187 193 191 199 206 198 211 220 196 202 308 319 252 105 99 144 207 190 93 98 167 270 289 300 314 335 2 46 98 133 268 167 148 179 159 174 217 187 159 240 229 238 255 228 267 316 63 134 157 166 179 190 198 216 214 199 195 187 181 176
130 121 93 168 180 180 177 202 198 206 224 228 273 244 248 216 202 198 201 209 201 184 200 226 220 218 227 191 166 201 209 211 214 204 203 198 178 17 357 351 280 142 117 186 188 182 191 140 124 273 300 310 329 347 351 356 80 165 257 259 160 133 109 101 158 109 153 220 204 222 251 234 199 16 43 92 148 166 204 213 211 223 209 189 190 182 172 165
121 97 19 180 190 196 211 200 184 201 210 212 229 230 230 261 227 190 185 205 207 182 193 233 224 193 190 166 163 208 216 223 231 224 144 149 304 343 2 356 2 151 174 265 139 146 177 177 140 158 235 256 258 235 240 257 221 184 253 256 212 149 136 128 122 156 213 218 194 218 244 251 196 121 40 261 171 183 235 263 266 245 210 193 189 175 167 166
131 147 122 155 198 224 253 186 140 187 188 193 225 220 200 220 256 203 184 206 216 190 195 242 172 152 180 166 171 214 230 228 216 177 128 153 263 307 347 4 34 103 119 52 56 84 117 180 190 188 221 242 229 212 216 166 145 236 264 246 238 221 168 136 134 184 207 226 243 237 226 234 262 242 222 227 206 210 247 272 272 251 221 201 187 174 174 177
136 165 171 157 178 219 224 217 211 214 179 178 201 204 196 206 228 220 197 209 209 191 206 224 164 188 205 167 168 216 221 209 202 178 156 156 186 296 332 32 43 23 32 54 37 80 105 234 234 195 225 240 178 180 210 146 166 225 249 255 255 247 170 146 187 208 171 192 252 245 205 199 248 250 224 200 211 238 256 258 255 243 213 190 174 168 178 184
180 153 194 174 140 200 209 206 201 206 209 201 197 180 192 194 198 208 205 195 200 199 213 232 199 197 193 166 176 211 193 195 220 199 163 140 135 180 343 10 354 349 28 41 5 87 121 231 239 165 233 252 121 147 188 163 186 224 229 240 251 249 187 166 214 217 187 213 254 257 193 200 244 260 252 213 211 229 244 250 249 214 175 165 155 158 175 191
160 355 261 320 58 207 211 185 182 200 210 212 228 235 206 188 197 213 200 150 217 219 205 219 218 197 187 174 178 200 192 187 216 220 176 161 163 160 147 288 275 7 56 66 5 78 123 216 221 125 257 283 360 222 214 182 210 244 242 238 243 247 212 196 227 231 214 231 257 265 260 256 257 259 265 262 235 219 217 201 154 145 153 155 153 158 176 197
151 193 228 93 69 223 219 163 170 199 211 210 225 229 207 203 209 216 172 173 201 223 202 212 216 194 191 191 188 207 204 177 190 213 178 164 192 187 183 210 187 88 62 99 181 338 85 160 111 86 16 301 304 260 227 212 215 249 261 255 248 244 233 230 237 238 231 243 251 256 264 268 265 252 252 276 196 141 140 144 147 155 158 152 157 173 188 205
210 326 89 131 166 180 171 169 171 191 207 208 218 217 205 218 212 186 252 217 185 193 201 199 197 175 179 200 203 216 210 173 182 202 176 167 192 188 185 195 158 138 149 163 172 342 101 161 63 77 87 283 297 202 245 333 349 285 271 263 255 246 239 240 236 219 216 229 241 241 243 256 262 255 217 172 155 155 159 158 157 170 173 162 169 191 205 213
197 314 37 106 168 192 167 161 168 191 208 203 211 215 213 221 200 175 230 291 94 168 222 175 170 146 130 197 219 226 200 155 155 162 140 120 103 92 99 130 130 139 158 159 147 81 129 146 138 115 162 267 272 193 218 24 4 283 265 250 243 243 240 240 244 234 216 198 204 221 229 242 254 255 244 227 200 183 177 171 172 185 197 198 195 200 211 216